Location: Saint-Restitut
(44.3351°N, 4.7915°E)
Time: 15:50:27
(UTC+00:00)

CSL-04 Debris - Pass Details

Date: 27 February 2024
Orbit: 824 x 843 km, 98.8° (Epoch: 21 April)

Event Time Altitude Azimuth Distance (km) Brightness Sun altitude
Exits shadow 20:57:37 14° 241° (WSW) 2,170 6.6 -37.6°
Maximum altitude 20:59:52 17° 269° (W) 1,966 6.6 -37.9°
Drops below altitude 10° 21:03:20 10° 310° (NW) 2,432 7.3 -38.5°
Sets 21:06:33 0° 330° (NNW) 3,370 8.1 -39.0°
